SCP
0 0 0 0 0 0 0 0 0 0 0 0 0 0 0 0 0 0 0 0 0 0 0 0 0 0 0 0 0 0 0 0 0 0 0 0 0 0 0 0 0 0 0
0 0 0 0 0 0 0 0 0 0 0 0 0 0 0 0 0 0 0 0 0 0 0 0 0 0 0 0 0 0 0 0 0 0 0 0 0 0 0 0 0 0 0
0 0 0 0 0 0 0 0 0 0 0 0 0 0 0 0 0 0 0 0 0 0 0 0 0 0 0 0 0 0 0 0 0 0 0 1 1 1 0 0 0 0 0
0 0 0 0 0 0 0 0 0 0 0 0 0 0 0 0 0 0 0 0 0 0 0 0 0 0 0 0 0 0 0 0 0 0 0 1 1 1 1 1 0 0 0
0 0 0 0 0 0 0 0 0 0 0 0 0 0 0 0 0 0 0 0 0 0 0 0 0 0 0 0 0 0 0 0 0 0 0 1 1 1 1 1 1 1 1
0 0 0 0 0 0 0 0 0 0 0 0 0 0 0 0 0 0 0 0 0 0 0 0 0 0 0 0 0 0 0 0 0 0 0 1 1 1 1 1 1 1 1
0 0 0 0 0 0 0 0 0 0 0 0 0 0 0 0 0 0 0 0 0 0 0 0 0 0 0 0 0 0 0 0 0 0 0 0 1 1 1 1 1 1 1
0 0 0 0 0 0 0 0 0 0 0 0 0 0 0 0 0 0 0 0 0 0 0 0 0 0 0 0 0 0 0 0 0 0 0 0 0 1 1 1 1 1 1
0 0 0 0 0 0 0 0 0 0 0 0 0 0 0 0 0 0 0 0 0 0 0 0 0 0 0 0 0 0 0 0 0 0 0 0 0 0 1 1 1 1 1
0 0 0 0 0 0 0 0 0 0 0 0 0 0 0 0 0 0 0 0 0 0 0 0 0 0 0 0 0 0 0 0 0 0 0 0 0 0 1 1 1 1 1
0 0 0 0 0 0 0 0 0 0 0 0 0 0 0 0 0 0 0 0 0 0 0 0 0 0 0 0 0 0 0 0 0 0 0 0 0 0 1 1 1 1 1
0 0 0 0 0 0 0 0 0 0 0 0 0 0 0 0 0 0 0 0 0 0 0 0 0 0 0 0 0 0 0 0 0 0 0 0 0 0 0 1 1 1 1
0 0 0 0 0 0 0 0 0 0 0 0 0 0 0 0 0 0 0 0 0 0 0 0 0 0 0 0 0 0 0 0 0 0 0 0 0 0 0 0 1 1 1
0 0 0 0 0 0 0 0 0 0 0 0 0 0 0 0 0 0 0 0 0 0 0 0 0 0 0 0 0 0 0 0 0 0 0 0 0 0 0 0 1 1 1
0 0 0 0 0 0 0 0 0 0 0 0 0 0 0 0 0 0 0 0 0 0 0 0 0 0 0 0 0 0 0 0 0 0 0 0 0 0 0 0 0 0 1
0 0 0 0 0 0 0 0 0 0 0 0 0 0 0 0 0 0 0 0 0 0 0 0 0 0 0 0 0 1 1 0 0 0 0 0 0 0 0 0 0 0 0
0 0 0 0 0 0 0 0 0 0 0 0 0 0 0 0 0 0 0 0 0 0 0 0 0 0 0 0 0 0 1 1 0 0 0 0 0 0 0 0 0 0 0
1 1 0 0 0 0 0 0 0 0 0 0 0 0 0 0 0 0 0 0 0 0 0 0 0 0 0 0 0 0 0 1 1 0 0 0 0 0 0 0 0 0 0
0 1 0 0 0 0 0 0 0 0 0 0 0 0 0 0 0 0 0 0 0 0 0 0 0 0 0 0 0 0 0 0 0 0 0 0 0 0 0 0 0 0 0
0 0 0 0 0 0 0 0 0 0 0 0 0 0 0 0 0 0 0 0 0 0 0 0 0 0 0 0 0 0 0 0 0 0 0 0 0 0 0 0 0 0 0
0 0 0 0 0 0 0 0 0 0 0 0 0 0 0 0 0 0 0 0 0 0 0 0 0 0 0 0 0 0 0 0 0 0 0 0 0 0 0 0 0 0 0
0 0 0 0 0 0 0 0 0 0 0 0 0 0 0 0 0 0 0 0 0 0 0 0 0 0 0 0 0 0 0 0 0 0 0 0 0 0 0 0 0 0 0
0 0 0 0 0 0 0 0 0 0 0 0 0 0 0 0 0 0 0 0 0 0 0 0 0 0 0 0 0 0 0 0 0 0 0 0 0 0 0 0 0 0 0
0 0 0 0 0 0 0 0 0 0 0 0 0 0 0 0 0 0 0 0 0 0 0 0 0 0 0 0 0 0 0 0 0 0 0 0 0 0 0 0 0 0 0
0 0 0 0 0 0 0 0 0 0 0 0 0 0 0 0 0 0 0 0 0 0 0 0 0 0 0 0 0 0 0 0 0 0 0 0 0 0 0 0 0 0 0
0 0 0 0 0 0 0 0 0 0 0 0 0 0 0 0 0 0 0 0 0 0 0 0 0 0 0 0 0 0 0 0 0 0 0 0 0 0 0 0 0 0 0
Wind_Speed
4 4 3 4 4 4 4 4 4 5 5 4 4 5 5 5 4 4 3 8 10 12 13 14 15 15 15 15 15 15 15 15 15 14 15 15 15 15 14 14 14 14 13
4 4 4 4 4 4 4 4 5 4 4 4 5 5 5 5 5 6 5 6 11 13 15 16 17 17 17 17 17 17 17 17 16 16 16 16 16 17 17 16 16 16 16
5 5 4 4 4 4 4 4 4 3 3 4 5 6 5 6 6 6 6 5 6 12 15 18 18 19 19 19 18 18 19 18 18 17 17 17 18 18 18 18 18 18 18
6 5 4 4 5 4 4 4 4 3 4 4 4 4 4 5 7 7 7 6 6 6 10 16 18 19 20 20 20 20 20 20 19 18 18 18 19 19 19 19 19 19 19
8 6 5 4 5 4 4 4 4 4 4 4 4 4 4 5 6 7 8 8 7 7 6 10 15 16 18 20 20 20 21 21 20 19 19 18 19 20 20 21 21 21 21
8 7 5 6 6 4 4 4 5 4 4 4 4 5 5 6 6 7 8 7 7 8 8 7 7 9 16 19 20 20 21 21 21 20 19 20 20 20 21 21 22 22 22
8 8 6 6 6 6 6 6 5 5 5 3 3 4 6 9 10 8 7 7 7 8 7 8 6 6 6 14 19 20 21 21 21 20 20 20 20 20 21 22 23 23 23
9 8 9 7 7 6 7 7 6 4 4 4 4 3 4 4 5 7 6 6 6 5 6 7 7 7 6 5 9 17 20 21 21 20 20 19 20 20 21 22 22 23 24
8 8 9 7 7 7 7 7 7 7 6 5 6 4 3 4 3 3 5 5 5 4 5 5 7 7 8 6 6 11 15 18 20 20 20 19 20 20 21 21 21 22 23
8 8 8 8 7 7 7 7 7 6 6 6 5 6 5 3 2 4 3 3 4 5 6 5 6 6 7 6 7 11 13 14 16 17 18 19 20 20 21 21 22 22 22
8 8 8 7 8 7 7 7 7 7 6 6 5 3 5 5 6 5 6 4 4 4 5 6 5 5 6 6 6 9 13 13 14 15 16 18 19 20 21 21 22 22 22
6 8 8 8 7 7 7 7 7 7 7 7 5 4 4 4 4 6 7 6 6 5 5 5 5 5 5 6 7 11 12 12 13 14 15 16 17 19 20 21 22 22 22
5 7 8 8 7 7 7 6 6 7 7 7 7 6 6 6 4 4 6 6 6 5 5 4 5 5 5 4 5 10 11 12 13 14 14 15 16 17 18 20 21 21 21
5 5 7 7 7 7 7 6 6 7 6 7 8 7 6 5 5 5 5 5 7 6 5 6 3 4 4 4 6 10 7 11 13 14 14 15 15 16 17 19 20 20 20
3 4 5 6 6 6 6 6 5 6 6 6 6 6 6 5 5 5 5 5 6 8 8 5 4 4 4 4 6 6 6 10 12 13 14 15 16 16 17 18 19 20 20
2 2 3 4 4 5 5 5 4 4 5 5 4 5 6 5 4 4 4 5 6 7 9 4 4 4 4 4 6 6 7 11 12 13 14 15 16 17 17 18 19 19 20
2 2 3 3 3 3 3 4 4 4 5 4 4 5 5 4 4 3 3 4 5 5 9 7 4 4 5 6 6 5 6 7 7 12 14 15 16 16 16 16 17 18 18
1 1 2 2 2 2 2 3 4 4 5 5 4 4 4 3 4 3 3 4 5 5 7 10 6 5 6 6 5 6 6 6 6 10 13 15 14 14 14 15 16 16 17
1 1 1 1 1 1 1 1 2 3 3 3 3 4 4 3 4 3 4 4 4 4 5 7 7 5 5 4 5 6 6 6 6 8 11 12 12 13 14 15 15 16 16
1 1 1 1 1 1 1 0 1 1 2 2 2 2 3 3 3 4 3 4 4 4 5 5 6 5 5 4 4 5 7 5 6 6 8 8 10 12 13 14 15 15 15
1 1 1 1 1 1 1 1 0 1 1 2 2 2 1 2 3 3 3 3 3 4 4 4 5 5 5 4 4 4 7 7 7 5 5 5 5 6 7 10 12 14 15
1 2 1 1 1 1 2 2 1 1 1 1 1 1 1 1 3 4 4 5 4 5 5 5 5 6 7 6 5 5 6 7 7 3 5 7 4 7 7 6 11 14 14
1 1 1 1 1 1 2 2 2 1 1 1 1 1 1 2 2 3 4 5 4 5 6 6 7 7 7 6 6 7 6 7 9 6 6 9 5 7 6 7 13 14 14
1 1 1 1 2 3 4 3 2 0 0 1 1 1 1 2 3 4 4 4 4 4 5 4 6 7 7 6 6 7 8 9 8 5 3 7 6 6 6 6 10 12 12
1 1 2 2 2 2 4 4 4 1 0 1 1 2 2 2 5 6 4 5 5 5 5 7 8 9 11 11 8 5 5 5 8 6 2 4 5 7 7 6 6 9 11
1 2 2 2 2 2 3 4 4 1 1 1 1 1 2 3 5 6 4 4 6 6 5 6 7 8 7 8 9 5 5 5 6 6 3 3 5 5 7 5 4 5 6
Wind_Direction
189 190 192 187 189 191 193 204 210 214 217 225 228 230 236 240 246 248 227 219 221 232 248 253 252 250 249 248 248 246 245 243 240 238 238 239 239 238 239 239 239 239 239
191 193 197 195 199 198 197 201 213 218 217 222 232 235 236 239 240 240 235 229 229 233 243 250 253 253 252 250 249 247 247 246 243 239 238 238 240 240 240 241 241 241 241
200 195 197 198 201 202 202 204 220 222 223 226 234 238 239 240 243 244 243 237 233 233 237 246 250 253 254 255 254 252 251 250 248 245 242 240 240 241 242 241 241 241 241
205 202 201 203 199 197 196 201 210 216 226 230 236 242 241 240 241 244 245 243 239 237 234 239 245 250 253 255 257 257 256 254 252 250 247 245 243 243 244 243 242 242 242
206 206 205 204 198 199 200 204 208 209 225 234 239 246 248 246 244 244 243 243 242 240 236 236 236 241 248 254 257 259 260 258 256 254 251 248 248 247 246 245 244 243 243
204 207 208 209 203 202 203 203 209 214 221 230 246 254 253 250 247 243 242 242 241 239 237 238 235 237 240 249 255 258 259 259 258 258 255 253 251 251 249 249 247 246 245
204 206 210 211 210 209 208 207 206 216 220 212 240 265 258 246 242 239 234 236 239 237 234 233 231 232 236 240 248 255 259 261 261 260 260 258 257 255 254 253 251 250 248
205 206 209 211 211 212 213 213 208 210 215 197 201 240 283 286 251 234 227 229 236 238 238 235 232 232 233 232 240 248 256 261 263 264 264 262 262 261 259 258 257 256 254
207 208 209 211 211 210 217 216 210 210 220 212 203 206 231 254 298 274 231 226 229 236 244 244 239 237 234 233 238 244 248 254 261 264 266 266 265 264 264 263 262 261 259
207 210 212 213 215 214 218 219 215 215 216 225 217 218 227 231 262 293 284 248 237 239 243 244 243 241 237 235 238 241 246 249 254 259 264 267 268 268 267 266 265 264 263
203 209 213 215 218 219 219 216 214 215 217 223 221 216 231 240 235 249 273 276 270 251 245 245 244 243 240 236 237 243 244 248 250 253 257 262 266 268 269 269 268 267 266
202 207 213 216 218 219 221 220 219 217 219 221 224 218 212 220 225 235 254 264 267 264 254 248 246 245 243 239 240 245 247 251 254 256 257 258 261 264 266 268 268 268 269
206 208 209 214 218 220 220 217 219 223 221 222 226 228 227 231 230 235 251 266 269 269 260 253 243 246 246 242 248 251 251 254 259 261 260 260 261 262 264 266 268 269 269
210 205 206 211 216 219 219 217 219 222 224 227 231 232 236 237 235 234 242 258 274 274 259 258 260 245 250 248 251 252 257 256 260 262 263 264 265 265 264 266 268 268 267
209 205 202 207 213 216 217 216 221 222 223 227 231 233 238 243 240 240 241 239 255 274 275 262 259 261 255 252 257 256 254 258 259 262 263 264 265 266 266 267 268 269 268
199 190 199 207 211 215 215 216 220 221 224 229 230 236 241 244 246 243 243 247 244 258 271 267 259 268 270 272 268 261 257 262 260 263 265 266 266 266 266 267 269 269 270
195 193 194 197 203 208 208 210 218 217 224 231 231 236 243 246 250 251 251 254 255 258 271 280 269 274 275 273 276 270 268 266 270 267 268 268 267 267 267 267 269 270 270
195 189 182 185 195 204 210 217 224 225 227 230 234 238 250 254 253 255 255 255 256 256 267 280 285 285 280 282 282 281 277 274 271 273 272 270 269 269 269 268 269 269 270
140 125 138 164 183 188 206 235 239 242 242 241 242 242 249 252 255 263 264 264 268 271 265 273 282 284 283 289 292 288 282 276 278 278 277 274 274 275 274 273 272 271 270
131 125 120 139 154 156 160 263 273 257 253 259 259 257 260 258 265 272 268 272 280 279 276 275 281 288 288 293 296 295 298 293 288 286 277 279 279 278 276 275 273 271 270
90 101 101 89 82 104 60 47 286 245 237 252 262 264 267 283 300 295 294 292 295 288 286 284 285 293 293 304 299 297 295 302 293 278 285 282 282 278 275 274 272 269 268
71 88 109 118 100 72 55 56 19 275 252 245 275 316 318 319 322 313 306 300 292 285 287 286 287 288 294 302 305 301 298 305 298 300 301 289 277 275 275 269 272 271 268
82 94 97 93 87 63 51 47 24 332 308 288 285 314 329 357 342 328 323 319 304 293 285 283 284 287 297 306 306 300 295 290 284 300 307 288 278 274 278 280 280 275 273
108 109 89 82 71 47 39 36 26 25 30 5 3 0 346 353 349 343 328 316 304 303 302 288 284 292 300 307 300 293 292 292 285 283 277 283 295 288 292 283 285 282 282
108 97 89 82 76 51 43 39 33 2 30 26 24 16 357 342 350 352 337 317 312 314 320 312 305 302 302 303 304 300 298 301 296 295 274 273 294 305 298 290 294 293 289
119 103 83 71 73 62 45 39 30 25 3 9 20 16 355 346 342 344 327 311 306 313 319 317 312 308 306 305 307 292 287 289 295 293 296 294 295 316 303 292 304 310 298